Flag for Austria Weather past 2 weeks in Klagenfurt, Carinthia, Austria

Now
72 °F

Passing clouds.


Feels Like: 77 °F
Forecast: 55 / 65 °F
Wind: 3 mph from East

Location: Klagenfurt-Flughafen

Current Time: Sep 30, 2014 at 4:07:09 PM

Latest Report: Sep 30, 2014 at 3:20 PM


Visibility: N/A

Pressure: 30.24 "Hg

Humidity: 50%

Dew point: 52 °F

Location of KlagenfurtLocation

Historic Weather in Klagenfurt — Graph

°F

Klagenfurt temperature yesterday

Maximum temperature yesterday: 72 °F (at 3:20 PM)
Minimum temperature yesterday: 48 °F (at 3:50 AM)
Average temperature yesterday: 59 °F

Past Weeks' High & Low Weather Summary

 TemperatureHumidityPressure
High77 °F (Sep 21, 3:50 PM)100% (Sep 16, 2:50 AM)30.45 "Hg (Sep 16, 2:50 AM)
Low41 °F (Sep 24, 4:20 AM)34% (Sep 22, 5:20 PM)29.83 "Hg (Sep 22, 5:20 PM)
Average58 °F80%30.12 "Hg
* Reported Sep 15 2:20 PM — Sep 30 2:50 PM, Klagenfurt, Weather by CustomWeather, © 2014

Note: Actual official high and low records may vary slightly from our data, if they occured in-between our weather recording intervals... More about our weather records

Advertising

Klagenfurt weather history for previous 24 hours

 ConditionsComfort  
Time TempWeatherWind HumidityBarometerVisibility
2:50 PM
Sep 30
72 °FPassing clouds.2 mph50%30.27 "HgN/A
2:20 PM70 °FPassing clouds.2 mph53%30.27 "HgN/A
1:50 PM68 °FPassing clouds.2 mph64%30.27 "HgN/A
1:20 PM66 °FPassing clouds.2 mph64%30.30 "HgN/A
12:50 PM66 °FPassing clouds.1 mph68%30.30 "HgN/A
12:20 PM64 °FPassing clouds.1 mph73%30.30 "HgN/A
11:50 AM63 °FSunny.2 mph73%30.30 "Hg10 mi
11:20 AM61 °FPassing clouds.3 mph77%30.33 "HgN/A
10:50 AM59 °FPassing clouds.2 mph82%30.33 "HgN/A
10:20 AM55 °FSleet. Light fog.2 mph94%30.33 "HgN/A
9:50 AM52 °FSleet. Scattered clouds.2 mph94%30.33 "Hg5 mi
9:20 AM50 °FPartly sunny.1 mph100%30.33 "Hg1 mi
8:50 AM48 °FSunny.2 mph100%30.33 "Hg0 mi
8:20 AM48 °FFog.2 mph100%30.33 "Hg1 mi
7:50 AM46 °FFog.1 mph100%30.33 "Hg0 mi
7:20 AM46 °FFog.1 mph100%30.33 "Hg0 mi
6:50 AM48 °FClear.1 mph94%30.33 "Hg0 mi
6:20 AM46 °FPassing clouds.2 mph100%30.30 "Hg1 mi
5:50 AM48 °FPassing clouds.2 mph94%30.30 "Hg1 mi
5:20 AM48 °FCool.5 mph100%30.30 "Hg2 mi
4:50 AM48 °FCool.3 mph100%30.30 "Hg1 mi
4:20 AM48 °FPassing clouds.5 mph100%30.30 "Hg1 mi
3:50 AM50 °FPassing clouds.3 mph94%30.30 "Hg1 mi
3:20 AM50 °FSleet. Overcast.2 mph100%30.30 "Hg4 mi
2:50 AM50 °FPassing clouds.6 mph100%30.30 "HgN/A
2:20 AM50 °FPassing clouds.3 mph100%30.30 "HgN/A
1:50 AM52 °FCool.5 mph94%30.30 "HgN/A
1:20 AM52 °FCool.5 mph94%30.30 "HgN/A
12:50 AM54 °FCool.3 mph94%30.30 "HgN/A
12:20 AM54 °FCool.3 mph94%30.30 "HgN/A
11:50 PM
Sep 29
54 °FFog.3 mph94%30.30 "HgN/A
11:20 PM55 °FClear.2 mph94%30.30 "Hg10 mi
10:50 PM55 °FClear.1 mph94%30.30 "Hg10 mi
10:20 PM57 °FClear.2 mph88%30.30 "Hg10 mi
9:50 PM57 °FPassing clouds.3 mph88%30.30 "HgN/A
9:20 PM57 °FClear.5 mph88%30.30 "Hg10 mi
8:50 PM59 °FClear.5 mph88%30.30 "Hg10 mi
8:20 PM61 °FClear.2 mph83%30.30 "Hg10 mi
7:50 PM63 °FClear.3 mph77%30.30 "Hg10 mi
7:20 PM63 °FScattered clouds.1 mph77%30.27 "HgN/A
6:50 PM66 °FScattered clouds.2 mph73%30.27 "HgN/A
6:20 PM70 °FPassing clouds.3 mph60%30.27 "HgN/A
5:50 PM70 °FPassing clouds.3 mph60%30.27 "HgN/A
5:20 PM72 °FPassing clouds.5 mph57%30.27 "HgN/A
4:50 PM72 °FPassing clouds.3 mph53%30.27 "HgN/A
4:20 PM72 °FPassing clouds.5 mph57%30.27 "HgN/A
Weather by CustomWeather, © 2014

See weather overviewHow to use our weather pages